Location: Newark
(33.6439°N, 114.9881°W)
Time: 12:16:28
(UTC+00:00)

Tiros 1 - Pass Details

Date: 26 July 2019
Orbit: 630 x 664 km, 48.4° (Epoch: 18 August)

Event Time Altitude Azimuth Distance (km) Brightness Sun altitude
Rises 22:56:26 0° 314° (NW) 2,997 11.0 45.6°
Reaches altitude 10° 22:59:01 10° 324° (NW) 2,082 10.2 45.1°
Maximum altitude 23:03:19 31° 27° (NNE) 1,147 8.5 44.2°
Drops below altitude 10° 23:07:34 10° 91° (E) 2,068 9.4 43.3°
Sets 23:10:08 0° 101° (E) 2,973 10.1 42.8°
